Flag for Canada Weather past 2 weeks in Markham, Ontario, Canada

Now
84 °F

Broken clouds.


Feels Like: 86 °F
Forecast: N/A
Wind: 7 mph from North

Location: Toronto Buttonville

Current Time: Aug 31, 2015 at 4:55:44 PM

Latest Report: Aug 31, 2015 at 4:00 PM


Visibility: 12 mi

Pressure: 29.99 "Hg

Humidity: 51%

Dew point: 64 °F

Location of MarkhamLocation

Historic Weather in Markham — Graph

°F

Markham temperature yesterday

Maximum temperature yesterday: 79 °F (at 2:00 PM)
Minimum temperature yesterday: 64 °F (at 3:00 AM)
Average temperature yesterday: 71 °F

Past Weeks' High & Low Weather Summary

 TemperatureHumidityPressure
High90 °F (Aug 17, 2:00 PM)100% (Aug 29, 6:00 AM)30.23 "Hg (Aug 29, 6:00 AM)
Low50 °F (Aug 28, 5:00 AM)36% (Aug 22, 3:00 PM)29.71 "Hg (Aug 20, 7:00 AM)
Average69 °F74%30.00 "Hg
* Reported Aug 16 3:00 PM — Aug 31 3:00 PM, Markham, Weather by CustomWeather, © 2015

Note: Actual official high and low records may vary slightly from our data, if they occured in-between our weather recording intervals... More about our weather records

Advertising

Markham weather history for previous 24 hours

 ConditionsComfort  
Time TempWeatherWind HumidityBarometerVisibility
3:00 PM
Mon, Aug 31
82 °FBroken clouds.5 mph55%30.00 "Hg12 mi
2:00 PM82 °FBroken clouds.3 mph55%30.01 "Hg12 mi
1:00 PM81 °FPassing clouds.8 mph58%30.02 "Hg12 mi
12:00 PM77 °FScattered clouds.10 mph65%30.03 "Hg12 mi
11:00 AM75 °FScattered clouds.8 mph74%30.04 "Hg12 mi
10:00 AM73 °FPassing clouds.8 mph78%30.03 "Hg10 mi
9:00 AM72 °FSunny.5 mph83%30.02 "Hg9 mi
8:00 AM68 °FSunny.5 mph88%30.01 "Hg8 mi
7:00 AM64 °FFog.2 mph94%30.00 "Hg6 mi
6:00 AM64 °FClear.2 mph94%29.99 "Hg10 mi
5:00 AM64 °FPassing clouds.2 mph94%30.00 "Hg10 mi
4:00 AM63 °FPassing clouds.No wind94%29.99 "Hg10 mi
3:00 AM64 °FClear.No wind88%29.99 "Hg10 mi
2:00 AM64 °FPassing clouds.No wind88%30.00 "Hg10 mi
1:00 AM66 °FClear.No wind94%30.01 "Hg12 mi
12:00 AM68 °FClear.No wind83%30.00 "Hg12 mi
11:00 PM
Sun, Aug 30
70 °FClear.3 mph78%30.01 "Hg12 mi
10:00 PM72 °FPassing clouds.5 mph73%30.02 "Hg12 mi
9:00 PM73 °FOvercast.5 mph69%30.02 "Hg12 mi
8:00 PM75 °FOvercast.7 mph65%30.01 "Hg15 mi
7:00 PM77 °FPartly sunny.8 mph61%30.00 "Hg15 mi
6:00 PM79 °FBroken clouds.5 mph58%30.01 "Hg15 mi
5:00 PM79 °FPartly sunny.6 mph58%30.01 "Hg15 mi
4:00 PM79 °FPartly sunny.2 mph58%30.03 "Hg15 mi
Weather by CustomWeather, © 2015

See weather overviewHow to use our weather pages